Home   Weather   Merzig   Past weeks

Flag for Germany Past Weather in Merzig, Saarland, Germany — Yesterday and Last 2 Weeks

46 °F

Passing clouds.

Feels Like: 45 °F
Forecast: 36 / 57 °F
Wind: 3 mph from Northeast

Location: Luxembourg / Luxembourg

Current Time: Oct 27, 2016 at 1:28:47 AM

Latest Report: Oct 27, 2016 at 12:00 AM

Visibility: 6 mi

Pressure: 30.49 "Hg

Humidity: 92%

Dew Point: 44 °F

Location of MerzigLocation

Past Weather in Merzig — Graph


Merzig Temperature Yesterday

Maximum temperature yesterday: 54 °F (at 3:00 PM)
Minimum temperature yesterday: 42 °F (at 7:00 AM)
Average temperature yesterday: 48 °F

High & Low Weather Summary for the Past Weeks

High63 °F (Oct 16, 5:00 PM)100% (Oct 17, 11:00 PM)30.49 "Hg (Oct 17, 11:00 PM)
Low39 °F (Oct 13, 9:00 AM)54% (Oct 13, 2:00 PM)29.66 "Hg (Oct 14, 5:00 PM)
Average47 °F89%30.04 "Hg
* Reported Oct 12 12:00 AM — Oct 27 12:00 AM, Merzig, Weather by CustomWeather, © 2016

Note: Actual official high and low records may vary slightly from our data, if they occured in-between our weather recording intervals... More about our weather records


Merzig Weather History for the Previous 24 Hours

Scroll right to see more
Time TempWeatherWind HumidityBarometerVisibility
12:00 AM
Thu, Oct 27
46 °FPassing clouds.3 mph92%30.49 "Hg6 mi
11:00 PM
Wed, Oct 26
45 °FPassing clouds.N/A95%30.48 "Hg6 mi
10:00 PM45 °FPassing clouds.2 mph94%30.46 "Hg9 mi
9:00 PM45 °FPassing clouds.2 mph95%30.44 "Hg9 mi
8:00 PM46 °FPassing clouds.2 mph93%30.43 "Hg9 mi
7:00 PM48 °FPassing clouds.2 mph88%30.42 "Hg9 mi
6:00 PM54 °FPassing clouds.2 mph72%30.39 "Hg9 mi
5:00 PM54 °FPassing clouds.2 mph68%30.38 "Hg9 mi
4:00 PM54 °FPassing clouds.1 mph72%30.37 "Hg9 mi
3:00 PM54 °FScattered clouds.2 mph72%30.38 "Hg7 mi
2:00 PM51 °FPartly sunny.2 mph80%30.40 "Hg6 mi
1:00 PM49 °FOvercast.2 mph87%30.40 "Hg4 mi
12:00 PM48 °FFog.2 mph96%30.40 "Hg3 mi
11:00 AM47 °FFog.2 mph98%30.40 "Hg2 mi
10:00 AM46 °FFog.3 mph99%30.40 "Hg1 mi
9:00 AM45 °FFog.3 mph100%30.38 "Hg0 mi
8:00 AM44 °FFog.3 mph100%30.36 "Hg0 mi
7:00 AM42 °FFog.3 mph100%30.36 "Hg0 mi
6:00 AM43 °FFog.3 mph100%30.35 "Hg0 mi
5:00 AM44 °FFog.2 mph97%30.34 "Hg0 mi
4:00 AM45 °FDense fog.N/A97%30.33 "Hg0 mi
3:00 AM48 °FFog.2 mph96%30.33 "Hg2 mi
2:00 AM49 °FOvercast.3 mph93%30.34 "Hg6 mi
1:00 AM50 °FPassing clouds.1 mph88%30.32 "Hg16 mi
Weather by CustomWeather, © 2016

See weather overviewHow to use our weather pages